Regional Weather Roundup
Issued by NWS Cleveland, OH

Home | Current Version | Previous Version | Text Only | Print | Product List | Glossary On
Versions: 1 2 3 4 5 6 7 8 9 10 11 12 13 14 15 16 17 18 19 20 21 22 23 24 25 26 27 28 29 30 31 32 33 34 35 36 37 38 39 40 41 42 43 44 45 46 47 48 49 50
000
ASUS41 KCLE 270902
RWRCLE
OHIO REGIONAL WEATHER ROUNDUP
NATIONAL WEATHER SERVICE CLEVELAND, OH
500 AM EDT FRI APR 27 2018

NOTE: "FAIR" INDICATES FEW OR NO CLOUDS BELOW 12,000 FEET WITH NO
SIGNIFICANT WEATHER AND/OR OBSTRUCTIONS TO VISIBILITY.

OHZ001>008-015>018-024>027-034-035-043-044-271000-
   NORTHWEST OHIO

CITY           SKY/WX    TMP DP  RH WIND       PRES   REMARKS
DEFIANCE       FAIR      41  35  79 CALM      29.77F
FINDLAY        FAIR      43  39  86 CALM      29.76F
TOLEDO EXPRESS FAIR      39  38  96 CALM      29.76F
TOLEDO EXEC    FAIR      43  37  79 CALM      29.77F
LIMA           FAIR      43  39  86 CALM      29.77F
$$

OHZ009>014-019>023-028>033-038-089-271000-
   NORTHEAST OHIO

CITY           SKY/WX    TMP DP  RH WIND       PRES   REMARKS
CLE-HOPKINS    FAIR      45  36  70 CALM      29.80S
CLE-LAKEFRONT  FAIR      46  36  68 SE12      29.76F
CUY CO. ARPT   NOT AVBL
LORAIN-ELYRIA  FAIR      42  32  67 VRB3      29.77F
ASHTABULA      FAIR      37  35  92 CALM      29.80S
AKRON-CANTON   MOCLDY    47  36  65 E3        29.78F
WOOSTER        FAIR      40  37  89 CALM      29.78F
MANSFIELD      CLOUDY    43  37  79 CALM      29.78S
YOUNGSTOWN     MOCLDY    42  35  76 SE3       29.78F
$$

OHZ042-051>053-060>062-070>072-077>081-271000-
  SOUTHWEST OHIO

CITY           SKY/WX    TMP DP  RH WIND       PRES   REMARKS
CINC-COVINGTON MOCLDY    48  33  56 W6        29.79S
CINC-LUNKEN    FAIR      42  42 100 CALM      29.80S FOG
HAMILTON       FAIR      45  41  86 NW3       29.80S
DAYTON         MOCLDY    44  40  85 NW5       29.78F
WRIGHT-PAT AFB FAIR      43  40  87 CALM      29.77F
DAYTON GENERAL FAIR      48  39  71 W3        29.77S
WILMINGTON     FAIR      44  41  89 S3        29.77S
$$

OHZ036-037-039>041-045>050-054>059-063>069-073>076-082>088-271000-
  CENTRAL AND SOUTHEAST OHIO

CITY           SKY/WX    TMP DP  RH WIND       PRES   REMARKS
COLUMBUS       FAIR      49  41  74 N5        29.76F
OSU AIRPORT    FAIR      45  40  82 N5        29.77S
BOLTON FIELD   FAIR      45  41  87 CALM      29.77S
RICKENBACK AFB FAIR      49  43  79 CALM      29.76S
NEWARK         MOCLDY    46  43  89 CALM      29.77S
MARION         FAIR      45  38  76 CALM      29.78F
LANCASTER      FAIR      46  44  93 CALM      29.76F
ZANESVILLE     FAIR      46  43  89 CALM      29.77S
NEW PHILLY     NOT AVBL
$$



USA.gov is the U.S. government's official web portal to all federal, state and local government web resources and services.